GW0118 Weather Reports


time (UTC)temp
C
wind
direction
speed
KPH
gust
KPH
rain 1hr
cm
rain 24hr
cm
rain mn
cm
humidity
%
barometer
mb
20260509051606 9 131 1.6 9.7 0.00 0.46 0.00 86 1010.9
20260509050107 9 102 1.6 4.8 0.00 0.46 0.00 87 1010.6
20260509044659 8 0 1.6 8.0 0.00 0.46 0.00 88 1010.9
20260509043140 8 0 0.0 3.2 0.00 0.46 0.00 88 1011.0
20260509041605 9 0 0.0 1.6 0.00 0.46 0.00 88 1010.9
20260509034600 9 259 0.0 3.2 0.00 0.46 0.00 88 1011.4
20260509033111 9 179 0.0 3.2 0.00 0.46 0.00 89 1011.5
20260509031612 9 0 0.0 4.8 0.00 0.46 0.00 89 1011.3
20260509030114 9 0 0.0 6.4 0.00 0.46 0.00 89 1011.4
20260509024603 9 66 0.0 4.8 0.00 0.46 0.00 89 1011.5
20260509023100 9 42 0.0 9.7 0.00 0.46 0.00 89 1011.5
20260509021602 9 125 0.0 8.0 0.00 0.46 0.00 89 1011.7
20260509020107 10 124 0.0 9.7 0.00 0.46 0.00 89 1011.5
20260509014600 10 0 1.6 6.4 0.00 0.46 0.00 89 1011.8
20260509013101 10 108 1.6 8.0 0.00 0.46 0.00 89 1012.1
20260509011601 9 143 1.6 9.7 0.00 0.46 0.00 90 1012.1
20260509010057 9 91 0.0 3.2 0.00 0.46 0.00 90 1012.4
20260509004608 9 0 0.0 1.6 0.00 0.46 0.00 89 1012.6
20260509003101 9 0 0.0 4.8 0.00 0.46 0.00 89 1012.6
20260509001557 9 169 1.6 8.0 0.00 0.46 0.00 90 1012.5
20260509000105 9 152 0.0 9.7 0.00 0.46 0.00 90 1012.5
20260508234558 9 0 0.0 4.8 0.00 0.46 0.00 91 1012.7
20260508233100 9 0 0.0 4.8 0.00 0.46 0.00 91 1012.8
20260508231559 8 0 0.0 1.6 0.00 0.46 0.00 92 1012.8
20260508230058 8 116 0.0 1.6 0.00 0.46 0.00 92 1012.9
20260508224635 8 129 1.6 8.0 0.00 0.46 0.00 92 1012.9
20260508223101 8 76 3.2 6.4 0.00 0.46 0.00 93 1013.1
20260508221559 8 94 0.0 3.2 0.00 0.46 0.00 93 1013.0
20260508220058 8 117 1.6 4.8 0.00 0.46 0.00 93 1013.1
20260508214600 8 122 0.0 1.6 0.00 0.46 0.46 93 1013.1
20260508213057 8 79 1.6 3.2 0.00 0.46 0.46 92 1013.1
20260508211602 8 0 0.0 4.8 0.00 0.46 0.46 92 1013.1
20260508210100 8 0 0.0 0.0 0.00 0.46 0.46 92 1012.9
20260508204600 9 136 1.6 3.2 0.00 0.46 0.46 91 1013.0
20260508203108 9 0 0.0 1.6 0.00 0.46 0.46 91 1012.8
20260508201605 10 113 0.0 1.6 0.00 0.46 0.46 91 1012.7
20260508200059 10 0 0.0 1.6 0.00 0.46 0.46 90 1012.6
20260508194559 10 0 0.0 1.6 0.00 0.46 0.46 90 1012.4
20260508193103 10 0 0.0 1.6 0.00 0.46 0.46 89 1012.4
20260508191601 10 0 0.0 0.0 0.00 0.46 0.46 88 1012.2
20260508190100 11 0 0.0 3.2 0.00 0.46 0.46 86 1012.1
20260508184601 11 59 1.6 3.2 0.00 0.46 0.46 84 1011.8
20260508183100 11 0 0.0 3.2 0.00 0.46 0.46 85 1011.9
20260508181600 11 108 0.0 3.2 0.00 0.46 0.46 83 1011.9
20260508174601 11 0 0.0 1.6 0.00 0.46 0.46 84 1011.7
20260508173059 11 0 0.0 3.2 0.00 0.46 0.46 85 1011.9
20260508171559 10 195 1.6 6.4 0.00 0.46 0.46 85 1011.9
20260508170101 11 247 4.8 12.9 0.00 0.46 0.46 85 1012.0
20260508164558 11 257 6.4 11.3 0.00 0.46 0.46 84 1011.9
20260508163059 11 259 4.8 6.4 0.00 0.46 0.46 82 1011.8
20260508161601 12 205 3.2 11.3 0.00 0.46 0.46 82 1011.7
20260508160100 12 187 1.6 4.8 0.00 0.46 0.46 83 1011.8
20260508154613 11 128 0.0 4.8 0.13 0.46 0.46 87 1011.9
20260508153059 11 120 1.6 6.4 0.23 0.46 0.46 88 1011.9
20260508151558 10 143 3.2 8.0 0.28 0.46 0.46 89 1012.3
20260508150110 10 153 3.2 11.3 0.28 0.46 0.46 89 1012.4
20260508144606 10 212 4.8 12.9 0.15 0.46 0.33 87 1012.7
20260508143129 11 212 4.8 16.1 0.05 0.36 0.23 86 1012.7
20260508141606 11 255 0.0 3.2 0.08 0.30 0.18 84 1012.3
20260508140113 10 254 3.2 6.4 0.08 0.28 0.18 85 1012.0
20260508134604 10 295 1.6 9.7 0.15 0.30 0.18 86 1012.1
20260508133110 8 0 1.6 17.7 0.18 0.30 0.18 87 1012.3
20260508131605 8 227 4.8 30.6 0.10 0.25 0.10 86 1012.4
20260508130103 8 276 11.3 40.2 0.08 0.23 0.08 80 1012.5
20260508124602 12 277 12.9 35.4 0.00 0.18 0.00 68 1012.1
20260508121607 15 198 6.4 22.5 0.00 0.18 0.00 64 1011.6
20260508120104 15 229 3.2 19.3 0.00 0.18 0.00 67 1011.6
20260508114600 14 200 4.8 14.5 0.00 0.18 0.00 68 1012.0
20260508113100 13 280 6.4 25.7 0.00 0.18 0.00 70 1012.1
20260508111606 13 216 9.7 17.7 0.00 0.18 0.00 68 1012.4
20260508110111 13 198 4.8 17.7 0.00 0.18 0.00 70 1012.5
20260508104612 12 306 8.0 19.3 0.00 0.18 0.00 71 1012.4
20260508103102 12 176 8.0 20.9 0.00 0.18 0.00 71 1012.3
20260508101557 12 247 6.4 14.5 0.00 0.18 0.00 73 1012.4
20260508100057 12 163 4.8 11.3 0.00 0.18 0.00 74 1012.3
20260508094559 11 158 8.0 19.3 0.00 0.18 0.00 75 1012.3
20260508093100 10 216 8.0 14.5 0.00 0.18 0.00 78 1012.7
20260508091609 10 172 8.0 16.1 0.00 0.18 0.00 81 1012.8
20260508090104 8 0 1.6 4.8 0.00 0.18 0.00 86 1012.8
20260508084614 7 0 0.0 1.6 0.00 0.18 0.00 88 1012.8
20260508083108 7 0 3.2 6.4 0.00 0.18 0.00 90 1012.5
20260508081558 6 35 0.0 1.6 0.00 0.18 0.00 90 1012.5
20260508080111 6 60 0.0 3.2 0.00 0.18 0.00 91 1012.7
20260508074628 6 53 0.0 1.6 0.00 0.18 0.00 90 1012.7
20260508073101 5 60 1.6 4.8 0.00 0.18 0.00 91 1012.7
20260508071558 6 0 0.0 1.6 0.00 0.18 0.00 90 1012.7
20260508070104 5 0 0.0 1.6 0.00 0.18 0.00 91 1012.8
20260508064600 5 67 0.0 1.6 0.00 0.18 0.00 91 1012.8
20260508063059 4 47 0.0 1.6 0.00 0.18 0.00 91 1012.9
20260508061600 4 0 0.0 1.6 0.00 0.18 0.00 91 1012.8
20260508054601 4 0 0.0 0.0 0.00 0.18 0.00 92 1012.6
20260508053103 3 0 0.0 1.6 0.00 0.18 0.00 92 1012.6